This is the latest recevied weather packets stored in our database for station/object N8ESC. If no packets are shown the sender has not sent any weather packets the latest 10 day(s).
| Time | Temp. | Humidity | Pressure | Rain* | Wind** | Luminosity | Snow |
|---|---|---|---|---|---|---|---|
| 1777727703 | 4.44° C | 51% | 1017 hPa | 0 mm | - | 265 W/m² | - |
| 1777727400 | 4.44° C | 51% | 1016.9 hPa | 0 mm | - | 249 W/m² | - |
| 1777727098 | 3.89° C | 52% | 1016.9 hPa | 0 mm | - | 235 W/m² | - |
| 1777726795 | 3.89° C | 55% | 1016.9 hPa | 0 mm | - | 220 W/m² | - |
| 1777726492 | 3.33° C | 55% | 1017 hPa | 0 mm | - | 210 W/m² | - |
| 1777726189 | 3.33° C | 57% | 1017.1 hPa | 0 mm | - | 115 W/m² | - |
| 1777725885 | 2.78° C | 57% | 1016.9 hPa | 0 mm | - | 47 W/m² | - |
| 1777725583 | 2.78° C | 59% | 1017.1 hPa | 0 mm | - | 46 W/m² | - |
| 1777725280 | 2.22° C | 59% | 1017 hPa | 0 mm | - | 45 W/m² | - |
| 1777724977 | 2.22° C | 60% | 1017 hPa | 0 mm | - | 45 W/m² | - |
| 1777724673 | 1.67° C | 61% | 1016.9 hPa | 0 mm | - | 133 W/m² | - |
| 1777724372 | 1.67° C | 62% | 1017 hPa | 0 mm | - | 122 W/m² | - |
| 1777724068 | 1.11° C | 63% | 1017 hPa | 0 mm | - | 112 W/m² | - |
| 1777723766 | 1.11° C | 63% | 1017.1 hPa | 0 mm | - | 103 W/m² | - |
| 1777723462 | 0.56° C | 64% | 1017 hPa | 0 mm | - | 91 W/m² | - |
| 1777723159 | 0.56° C | 66% | 1017.1 hPa | 0 mm | - | 82 W/m² | - |
| 1777722856 | 0° C | 68% | 1017.2 hPa | 0 mm | - | 73 W/m² | - |
| 1777722552 | 0° C | 68% | 1017.2 hPa | 0 mm | - | 65 W/m² | - |
| 1777722249 | -0.56° C | 69% | 1017 hPa | 0 mm | - | 56 W/m² | - |
| 1777721946 | -0.56° C | 69% | 1017 hPa | 0 mm | - | 49 W/m² | - |
| 1777721644 | -0.56° C | 70% | 1016.8 hPa | 0 mm | - | 43 W/m² | - |
| 1777721342 | -1.11° C | 71% | 1016.8 hPa | 0 mm | - | 37 W/m² | - |
| 1777721040 | -1.11° C | 71% | 1017 hPa | 0 mm | - | 32 W/m² | - |
| 1777720737 | -1.11° C | 71% | 1017.1 hPa | 0 mm | - | 28 W/m² | - |
| 1777720434 | -1.67° C | 72% | 1017 hPa | 0 mm | - | 24 W/m² | - |
* Rain latest hour (hover to see other rain measurements)
** Current wind speed in m/s (hover to see current wind gust speed)